Weather History for Crestview, FL

Change the Weather History Date:

Thursday, November 22, 2012

  Actual Average Record
Temperature  
Mean Temperature 56 °F -  
Max Temperature 73 °F - - ()
Min Temperature 39 °F - - ()
Degree Days  
Heating Degree Days 9    
Growing Degree Days 6 (Base 50)    
Moisture  
Dew Point 45 °F    
Average Humidity 80    
Maximum Humidity 100    
Minimum Humidity 35    
Precipitation  
Precipitation 0.00 in - - ()
Sea Level Pressure  
Sea Level Pressure 30.20 in    
Wind  
Wind Speed 1 mph (NW)    
Max Wind Speed 8 mph    
Max Gust Speed -    
Visibility 7 miles    
Events      
T = Trace of Precipitation, MM = Missing Value Source: NWS Daily Summary

Daily Weather History Graph

Daily Weather History Graph

Search for Another Location

Airport:

Trip Planner

Search our weather history database for the weather conditions in past years. The results will help you decide how hot, cold, wet, or windy it might be!

Date:

Astronomy

Nov. 22, 2012 Rise Set
Actual Time 6:18 AM CST 4:45 PM CST
Civil Twilight 5:52 AM CST 5:11 PM CST
Nautical Twilight 5:23 AM CST 5:41 PM CST
Astronomical Twilight 4:54 AM CST 6:10 PM CST
Moon 1:12 PM CST (11/22) 12:58 AM CST (11/22)
Length of Visible Light 11h 18m
Length of Day
10h 27m
Waxing Gibbous, 71% of the Moon is Illuminated
Nov 22
Waxing Gibbous
Nov 28
Full
Dec 6
Last Quarter
Dec 13
New
Dec 19
First Quarter

Hourly Weather History & Observations

Time (CST) Temp. Dew Point Humidity Pressure Visibility Wind Dir Wind Speed Gust Speed Precip Events Conditions
12:55 AM 44.6 °F 43.2 °F 95% 30.17 in 10.0 mi Calm Calm - N/A   Clear
1:55 AM 44.1 °F 42.6 °F 95% 30.17 in 10.0 mi Calm Calm - N/A   Clear
2:55 AM 42.6 °F 40.5 °F 92% 30.17 in 10.0 mi Calm Calm - N/A   Clear
3:55 AM 41.7 °F 40.1 °F 94% 30.17 in 10.0 mi Calm Calm - N/A   Clear
4:55 AM 41.9 °F 40.8 °F 96% 30.18 in 7.0 mi Calm Calm - N/A   Clear
5:55 AM 39.7 °F 38.8 °F 97% 30.20 in 7.0 mi Calm Calm - N/A   Clear
6:55 AM 41.0 °F 39.9 °F 96% 30.21 in 10.0 mi Calm Calm - N/A   Clear
7:55 AM 51.4 °F 46.9 °F 85% 30.23 in 10.0 mi NE 3.5 mph - N/A   Clear
8:55 AM 59.5 °F 48.0 °F 66% 30.25 in 10.0 mi NNE 3.5 mph - N/A   Clear
9:55 AM 67.5 °F 48.7 °F 51% 30.25 in 10.0 mi Calm Calm - N/A   Clear
10:55 AM 70.9 °F 47.3 °F 43% 30.23 in 10.0 mi Calm Calm - N/A   Clear
11:55 AM 72.5 °F 46.6 °F 40% 30.21 in 10.0 mi WSW 3.5 mph - N/A   Clear
12:55 PM 73.4 °F 45.1 °F 36% 30.19 in 10.0 mi Variable 3.5 mph - N/A   Clear
1:55 PM 73.8 °F 44.6 °F 35% 30.17 in 10.0 mi North 5.8 mph - N/A   Clear
2:55 PM 73.8 °F 44.2 °F 35% 30.17 in 10.0 mi North 4.6 mph - N/A   Clear
3:55 PM 70.7 °F 47.8 °F 44% 30.17 in 10.0 mi South 8.1 mph - N/A   Clear
4:55 PM 63.7 °F 48.9 °F 59% 30.19 in 10.0 mi South 4.6 mph - N/A   Clear
5:55 PM 59.2 °F 49.1 °F 69% 30.19 in 10.0 mi Calm Calm - N/A   Clear
6:55 PM 55.4 °F 48.7 °F 78% 30.20 in 10.0 mi South 3.5 mph - N/A   Clear
7:55 PM 50.5 °F 46.4 °F 86% 30.21 in 10.0 mi Calm Calm - N/A   Clear
8:55 PM 48.4 °F 45.5 °F 90% 30.22 in 10.0 mi Calm Calm - N/A   Clear
9:55 PM 46.8 °F 44.8 °F 93% 30.21 in 8.0 mi Calm Calm - N/A   Clear
10:55 PM 46.0 °F 44.2 °F 93% 30.21 in 7.0 mi Calm Calm - N/A   Clear
11:11 PM 44.6 °F 42.8 °F 93% 30.21 in 1.8 mi Calm Calm - N/A   Clear
11:12 PM 46.4 °F 44.6 °F 93% 30.21 in 1.2 mi Calm Calm - N/A   Clear
11:13 PM 46.4 °F 44.6 °F 93% 30.21 in 1.0 mi Calm Calm - N/A   Clear
11:18 PM 46.4 °F 44.6 °F 93% 30.21 in 0.8 mi Calm Calm - N/A   Clear
11:20 PM 46.4 °F 44.6 °F 93% 30.21 in 1.0 mi Calm Calm - N/A   Clear
11:21 PM 46.4 °F 46.4 °F 100% 30.21 in 1.2 mi Calm Calm - N/A   Clear
11:22 PM 46.4 °F 46.4 °F 100% 30.21 in 1.5 mi Calm Calm - N/A   Clear
11:23 PM 46.4 °F 46.4 °F 100% 30.21 in 2.0 mi Calm Calm - N/A   Clear
11:24 PM 46.4 °F 46.4 °F 100% 30.21 in 2.5 mi Calm Calm - N/A   Clear
11:25 PM 46.4 °F 44.6 °F 93% 30.21 in 3.0 mi Calm Calm - N/A   Clear
11:55 PM 46.2 °F 45.0 °F 95% 30.21 in 10.0 mi Calm Calm - N/A   Clear